EW9370 Weather Reports


Display with metric or nautical units.
time (UTC)temp
F
wind
direction
speed
MPH
gust
MPH
rain 1hr
in
rain 24hr
in
rain mn
in
humidity
%
barometer
mb
20240622104519 0 86 4.0 10.0 0.00 0.07 0.00 1014.3
20240622103015 0 13 2.0 8.0 0.00 0.07 0.00 1014.2
20240622101513 0 88 1.0 9.0 0.00 0.07 0.00 1014.3
20240622100006 0 69 3.0 7.0 0.00 0.10 0.00 1014.2
20240622094559 0 73 2.0 6.0 0.00 0.10 0.00 1014.1
20240622093054 0 77 0.0 8.0 0.00 0.10 0.00 1014.1
20240622091551 0 73 0.0 4.0 0.00 0.10 0.00 1014.0
20240622090053 0 91 0.0 0.0 0.00 0.10 0.00 1014.1
20240622084543 0 73 0.0 4.0 0.00 0.12 0.00 1014.2
20240622083034 0 71 0.0 5.0 0.00 0.12 0.00 1014.3
20240622081541 0 86 1.0 7.0 0.00 0.12 0.00 1014.3
20240622080028 0 68 2.0 6.0 0.00 0.12 0.00 1014.5
20240622074518 0 97 2.0 7.0 0.00 0.14 0.00 1014.4
20240622073014 0 97 2.0 9.0 0.00 0.14 0.00 1014.4
20240622071511 0 82 2.0 8.0 0.00 0.14 0.00 1014.5
20240622070006 0 83 0.0 3.0 0.00 0.16 0.00 1014.6
20240622064558 0 117 0.0 8.0 0.00 0.16 0.00 1014.7
20240622063105 0 78 3.0 10.0 0.00 0.16 0.00 1014.8
20240622061557 0 96 2.0 9.0 0.00 0.16 0.00 1014.8
20240622060107 0 71 1.0 7.0 0.00 0.16 0.00 1014.8
20240622054551 0 71 2.0 7.0 0.00 0.17 0.00 1014.8
20240622053050 0 65 3.0 9.0 0.00 0.17 0.00 1014.8
20240622051541 0 70 2.0 9.0 0.00 0.17 0.00 1015.1
20240622050042 0 44 2.0 7.0 0.00 0.17 0.00 1015.0
20240622044502 0 72 3.0 12.0 0.00 0.17 0.17 1015.1
20240622043110 0 127 4.0 9.0 0.00 0.17 0.17 1015.1
20240622041525 0 83 3.0 10.0 0.00 0.17 0.17 1015.3
20240622040022 0 83 5.0 10.0 0.00 0.17 0.17 1015.2
20240622034521 0 94 4.0 11.0 0.00 0.17 0.17 1015.1
20240622033017 0 87 5.0 12.0 0.00 0.17 0.17 1015.0
20240622031516 0 108 5.0 12.0 0.00 0.17 0.17 1015.0
20240622030009 0 78 6.0 13.0 0.00 0.19 0.17 1014.9
20240622024502 0 76 3.0 10.0 0.00 0.19 0.17 1014.8
20240622023058 0 97 5.0 11.0 0.00 0.19 0.17 1014.7
20240622021555 0 71 4.0 15.0 0.00 0.19 0.17 1014.6
20240622020049 0 74 4.0 11.0 0.00 0.19 0.17 1014.5
20240622014546 0 81 5.0 13.0 0.00 0.31 0.17 1014.5
20240622013057 0 75 7.0 14.0 0.00 0.31 0.17 1014.4
20240622011538 0 118 5.0 11.0 0.00 0.31 0.17 1014.2
20240622010035 0 95 3.0 12.0 0.00 0.31 0.17 1014.2
20240622004531 0 64 4.0 11.0 0.00 0.62 0.17 1014.4
20240622003025 0 88 5.0 12.0 0.00 0.62 0.17 1014.4
20240622001519 0 49 5.0 12.0 0.00 0.62 0.17 1014.2
20240622000034 0 113 6.0 12.0 0.00 1.13 0.17 1013.9
20240621234509 0 15 4.0 13.0 0.00 1.13 0.17 1013.9
20240621233041 0 15 6.0 15.0 0.00 1.13 0.17 1014.0
20240621231534 0 97 4.0 14.0 0.00 1.13 0.17 1013.9
20240621230100 0 110 6.0 16.0 0.00 1.13 0.17 1013.9
20240621230026 0 92 5.0 14.0 0.00 1.13 0.17 1013.9
20240621224558 0 74 5.0 12.0 0.00 1.88 0.17 1014.0
20240621223048 0 39 3.0 15.0 0.00 1.88 0.17 1014.1
20240621221545 0 351 6.0 12.0 0.00 1.88 0.17 1014.2
20240621220038 0 84 5.0 17.0 0.00 1.88 0.17 1014.1
20240621214534 0 150 4.0 12.0 0.00 2.19 0.17 1014.3
20240621213032 0 34 7.0 15.0 0.00 2.19 0.17 1014.4
20240621211522 0 81 6.0 13.0 0.00 2.19 0.17 1014.6
20240621210028 0 161 9.0 15.0 0.00 2.29 0.17 1014.8
20240621204514 0 100 5.0 15.0 0.00 2.29 0.17 1014.8
20240621203041 0 55 7.0 20.0 0.00 2.29 0.17 1015.0
20240621201536 0 34 6.0 14.0 0.00 2.29 0.17 1015.1
20240621200034 0 85 9.0 17.0 0.00 2.29 0.17 1015.1
20240621194532 0 132 7.0 17.0 0.00 2.39 0.17 1015.3
20240621193025 0 114 6.0 17.0 0.00 2.39 0.17 1015.4
20240621191515 0 105 6.0 18.0 0.00 2.39 0.17 1015.7
20240621190009 0 84 7.0 20.0 0.00 2.48 0.17 1015.8
20240621184504 0 65 5.0 13.0 0.00 2.48 0.17 1015.7
20240621183101 0 49 5.0 16.0 0.00 2.48 0.17 1015.8
20240621181606 0 112 3.0 13.0 0.00 2.48 0.17 1015.9
20240621180049 0 99 4.0 13.0 0.00 2.48 0.17 1016.1
20240621174544 0 326 6.0 17.0 0.00 2.64 0.17 1016.2
20240621173046 0 108 3.0 12.0 0.00 2.64 0.17 1016.3
20240621171538 0 79 5.0 14.0 0.00 2.64 0.17 1016.3
20240621170028 0 89 4.0 13.0 0.00 2.64 0.17 1016.4
20240621164523 0 86 6.0 13.0 0.00 2.71 0.17 1016.5
20240621163017 0 96 5.0 13.0 0.01 2.71 0.17 1016.4
20240621161513 0 19 6.0 12.0 0.01 2.71 0.17 1016.4
20240621160007 0 84 7.0 15.0 0.01 2.77 0.17 1016.4
20240621154504 0 102 6.0 13.0 0.02 2.77 0.17 1016.3
20240621153058 0 98 6.0 14.0 0.01 2.76 0.16 1016.3
20240621151603 0 86 4.0 14.0 0.01 2.76 0.16 1016.2
20240621150100 0 103 5.0 14.0 0.02 2.76 0.16 1016.3
20240621144542 0 52 6.0 15.0 0.01 2.80 0.15 1016.2
20240621143043 0 81 7.0 13.0 0.02 2.80 0.15 1016.2
20240621141545 0 125 6.0 13.0 0.02 2.80 0.15 1016.0
20240621140128 0 57 8.0 14.0 0.01 2.79 0.14 1015.9
20240621134553 0 85 5.0 14.0 0.02 2.80 0.14 1015.7
20240621133050 0 79 5.0 14.0 0.01 2.79 0.13 1015.4
20240621131543 0 116 2.0 11.0 0.01 2.79 0.13 1015.0
20240621130038 0 72 5.0 11.0 0.02 2.79 0.13 1014.8
20240621124534 0 71 6.0 13.0 0.01 2.79 0.12 1014.7
20240621123029 0 72 4.0 9.0 0.01 2.79 0.12 1014.5
20240621121521 0 72 3.0 10.0 0.00 2.78 0.11 1014.5
20240621120035 0 67 8.0 13.0 0.00 2.80 0.11 1014.4
20240621114512 0 89 4.0 11.0 0.01 2.80 0.11 1014.3
20240621113008 0 74 1.0 12.0 0.01 2.80 0.11 1014.4
20240621111501 0 71 0.0 5.0 0.01 2.80 0.11 1014.4
20240621110058 0 63 0.0 10.0 0.01 2.80 0.11 1014.3